GALAXY 14 (G-14)

Last updated on Thu Nov 21 2024 00:02:40 GMT+0000 (Coordinated Universal Time)

1 28790U 05030A 24325.25883213 -.00000181 00000+0 00000+0 0 9991 2 28790 3.5339 81.9232 0001660 176.6967 70.6683 0.99010886 70548
UTC large
Height (km)
Speed (km/s)
/
Latitude / Longitude
Inclination (degrees)
Orbital Period (minutes)
Azimuth
Elevation
Range (km)
Doppler Factor

Next 0 passes for location: London (51.5072 / 0.1276)

Sorry there are no passes over London.